FW4013 Weather Reports


time (UTC)temp
C
wind
direction
speed
KPH
gust
KPH
rain 1hr
cm
rain 24hr
cm
rain mn
cm
humidity
%
barometer
mb
20260505004544 23 276 6.4 14.5 0.00 0.00 0.00 27 1008.1
20260505004044 23 273 8.0 14.5 0.00 0.00 0.00 27 1008.3
20260505003544 23 232 8.0 17.7 0.00 0.00 0.00 27 1008.4
20260505003044 23 281 6.4 17.7 0.00 0.00 0.00 27 1008.3
20260505002544 23 243 6.4 14.5 0.00 0.00 0.00 27 1008.4
20260505002045 23 267 4.8 14.5 0.00 0.00 0.00 27 1008.4
20260505001544 23 274 8.0 16.1 0.00 0.00 0.00 27 1008.3
20260505001044 23 256 8.0 17.7 0.00 0.00 0.00 27 1008.3
20260505000544 23 257 6.4 17.7 0.00 0.00 0.00 27 1008.4
20260505000104 24 238 6.4 17.7 0.00 0.00 0.00 26 1008.4
20260504235544 24 260 6.4 17.7 0.00 0.00 0.00 26 1008.5
20260504235044 24 266 6.4 14.5 0.00 0.00 0.00 26 1008.5
20260504234604 24 249 8.0 16.1 0.00 0.00 0.00 26 1008.5
20260504234044 24 242 6.4 22.5 0.00 0.00 0.00 27 1008.6
20260504233544 24 255 6.4 22.5 0.00 0.00 0.00 27 1008.7
20260504233104 24 234 8.0 17.7 0.00 0.00 0.00 27 1008.5
20260504232544 24 263 8.0 17.7 0.00 0.00 0.00 27 1008.6
20260504232044 24 242 6.4 19.3 0.00 0.00 0.00 27 1008.7
20260504231604 24 248 6.4 19.3 0.00 0.00 0.00 27 1008.7
20260504231044 24 254 6.4 20.9 0.00 0.00 0.00 27 1008.7
20260504230604 24 261 9.7 20.9 0.00 0.00 0.00 27 1008.6
20260504230045 24 238 8.0 19.3 0.00 0.00 0.00 27 1009.0
20260504225604 24 257 9.7 19.3 0.00 0.00 0.00 27 1008.8
20260504225044 24 254 9.7 19.3 0.00 0.00 0.00 28 1008.8
20260504224544 24 258 8.0 17.7 0.00 0.00 0.00 29 1009.0
20260504224045 24 234 6.4 19.3 0.00 0.00 0.00 29 1009.0
20260504223544 23 254 8.0 19.3 0.00 0.00 0.00 29 1009.1
20260504223104 23 257 9.7 16.1 0.00 0.00 0.00 29 1009.1
20260504222544 23 252 6.4 17.7 0.00 0.00 0.00 29 1009.0
20260504222044 23 248 9.7 22.5 0.00 0.00 0.00 29 1009.1
20260504221544 23 260 8.0 25.7 0.00 0.00 0.00 30 1009.2
20260504221044 23 232 8.0 25.7 0.00 0.00 0.00 30 1009.1
20260504220544 23 247 8.0 14.5 0.00 0.00 0.00 30 1009.2
20260504220044 23 214 6.4 16.1 0.00 0.00 0.00 30 1009.1
20260504215544 23 210 6.4 16.1 0.00 0.00 0.00 30 1009.2
20260504215044 23 251 4.8 12.9 0.00 0.00 0.00 30 1009.3
20260504214544 23 245 8.0 17.7 0.00 0.00 0.00 30 1009.4
20260504214044 23 250 8.0 22.5 0.00 0.00 0.00 30 1009.4
20260504213544 23 235 9.7 22.5 0.00 0.00 0.00 30 1009.4
20260504213044 22 199 4.8 14.5 0.00 0.00 0.00 31 1009.6
20260504212604 22 245 4.8 12.9 0.00 0.00 0.00 31 1009.5
20260504212044 22 222 4.8 14.5 0.00 0.00 0.00 31 1009.4
20260504211544 22 236 3.2 19.3 0.00 0.00 0.00 30 1009.4
20260504211104 22 222 6.4 19.3 0.00 0.00 0.00 31 1009.6
20260504210544 22 269 6.4 19.3 0.00 0.00 0.00 31 1009.6
20260504210044 22 250 8.0 19.3 0.00 0.00 0.00 31 1009.6
20260504205544 22 252 8.0 14.5 0.00 0.00 0.00 31 1009.7
20260504205044 22 240 8.0 14.5 0.00 0.00 0.00 31 1009.8
20260504204544 22 251 6.4 17.7 0.00 0.00 0.00 31 1009.7
20260504204044 22 232 8.0 17.7 0.00 0.00 0.00 31 1009.6
20260504203544 22 257 6.4 17.7 0.00 0.00 0.00 31 1009.6
20260504203044 22 253 9.7 17.7 0.00 0.00 0.00 31 1009.9
20260504202544 22 236 8.0 14.5 0.00 0.00 0.00 31 1009.8
20260504202044 22 246 6.4 14.5 0.00 0.00 0.00 31 1009.8
20260504201544 22 246 6.4 12.9 0.00 0.00 0.00 31 1009.9
20260504201044 22 239 6.4 14.5 0.00 0.00 0.00 31 1009.9
20260504200544 22 236 8.0 14.5 0.00 0.00 0.00 31 1010.0
20260504200044 22 229 8.0 14.5 0.00 0.00 0.00 31 1009.9
20260504195544 22 236 8.0 12.9 0.00 0.00 0.00 31 1009.9
20260504195044 22 238 6.4 14.5 0.00 0.00 0.00 30 1009.9
20260504194544 22 229 6.4 14.5 0.00 0.00 0.00 31 1010.0
20260504194044 22 226 8.0 12.9 0.00 0.00 0.00 31 1009.9
20260504193604 22 217 6.4 12.9 0.00 0.00 0.00 31 1010.0
20260504193044 23 231 6.4 11.3 0.00 0.00 0.00 31 1009.9
20260504192544 23 229 4.8 12.9 0.00 0.00 0.00 31 1009.9
20260504192044 23 226 8.0 12.9 0.00 0.00 0.00 31 1010.0
20260504191544 23 196 4.8 9.7 0.00 0.00 0.00 31 1010.0
20260504191044 23 213 4.8 11.3 0.00 0.00 0.00 31 1010.1
20260504190544 24 184 3.2 11.3 0.00 0.00 0.00 31 1010.0
20260504190044 25 158 3.2 11.3 0.00 0.00 0.00 31 1010.0
20260504185544 25 229 6.4 11.3 0.00 0.00 0.00 31 1010.1
20260504185044 25 211 6.4 11.3 0.00 0.00 0.00 31 1010.1
20260504184604 24 225 6.4 9.7 0.00 0.00 0.00 32 1010.2
20260504184044 24 223 3.2 9.7 0.00 0.00 0.00 32 1010.1
20260504183544 24 207 4.8 8.0 0.00 0.00 0.00 32 1010.3
20260504183045 23 190 3.2 8.0 0.00 0.00 0.00 33 1010.3
20260504182544 23 136 3.2 8.0 0.00 0.00 0.00 33 1010.2
20260504182044 23 185 3.2 6.4 0.00 0.00 0.00 34 1010.2
20260504181544 23 188 3.2 6.4 0.00 0.00 0.00 34 1010.2
20260504181044 22 161 3.2 9.7 0.00 0.00 0.00 34 1010.2
20260504180544 22 216 3.2 9.7 0.00 0.00 0.00 34 1010.1
20260504180044 23 142 3.2 6.4 0.00 0.00 0.00 34 1010.4
20260504175624 23 160 3.2 6.4 0.00 0.00 0.00 35 1010.2
20260504175044 22 183 3.2 6.4 0.00 0.00 0.00 35 1010.2
20260504174544 22 183 4.8 6.4 0.00 0.00 0.00 35 1010.3
20260504174044 22 160 3.2 6.4 0.00 0.00 0.00 36 1010.3
20260504173544 21 142 3.2 9.7 0.00 0.00 0.00 35 1010.3
20260504173104 21 182 3.2 9.7 0.00 0.00 0.00 35 1010.5
20260504172544 21 185 4.8 11.3 0.00 0.00 0.00 35 1010.6
20260504172044 21 125 4.8 11.3 0.00 0.00 0.00 35 1010.6
20260504171544 21 103 6.4 11.3 0.00 0.00 0.00 34 1010.6
20260504171044 21 131 4.8 12.9 0.00 0.00 0.00 36 1010.8
20260504170544 20 115 4.8 12.9 0.00 0.00 0.00 36 1010.7
20260504170104 20 118 4.8 9.7 0.00 0.00 0.00 36 1010.8
20260504160105 18 144 3.2 6.4 0.00 0.00 0.00 41 1011.3
20260504151044 16 99 4.8 8.0 0.00 0.00 0.00 43 1011.6
20260504150544 16 67 1.6 8.0 0.00 0.00 0.00 43 1011.7
20260504141044 15 223 1.6 3.2 0.00 0.00 0.00 44 1011.7
20260504140544 15 318 1.6 8.0 0.00 0.00 0.00 45 1011.7
20260504130604 14 310 3.2 4.8 0.00 0.00 0.00 46 1011.3
20260504110544 14 55 3.2 6.4 0.00 0.00 0.00 44 1011.2
20260504100544 15 346 1.6 6.4 0.00 0.00 0.00 41 1011.4
20260504081544 16 310 1.6 3.2 0.00 0.00 0.00 38 1010.9
20260504081044 16 252 1.6 4.8 0.00 0.00 0.00 38 1010.9
20260504080544 17 318 1.6 4.8 0.00 0.00 0.00 36 1011.0
20260504050543 19 29 3.2 6.4 0.00 0.00 0.00 32 1011.0
20260504045543 19 26 1.6 6.4 0.00 0.00 0.00 33 1011.1
20260504045043 19 37 3.2 6.4 0.00 0.00 0.00 32 1011.0
20260504044543 20 27 1.6 11.3 0.00 0.00 0.00 32 1010.9
20260504044104 20 319 1.6 11.3 0.00 0.00 0.00 32 1010.9
20260504043544 20 35 3.2 11.3 0.00 0.00 0.00 31 1010.9
20260504043043 20 82 3.2 17.7 0.00 0.00 0.00 31 1010.8
20260504042543 20 68 4.8 17.7 0.00 0.00 0.00 31 1010.8
20260504042043 20 78 3.2 11.3 0.00 0.00 0.00 31 1010.7
20260504041544 20 69 4.8 9.7 0.00 0.00 0.00 32 1010.7
20260504041043 20 54 3.2 8.0 0.00 0.00 0.00 32 1010.7
20260504040543 20 64 3.2 11.3 0.00 0.00 0.00 32 1010.8
20260504040043 20 47 3.2 11.3 0.00 0.00 0.00 31 1010.7
20260504035543 20 70 4.8 16.1 0.00 0.00 0.00 31 1010.6
20260504035124 20 56 4.8 16.1 0.00 0.00 0.00 31 1010.7
20260504034043 20 58 3.2 6.4 0.00 0.00 0.00 31 1010.6
20260504033543 20 354 1.6 4.8 0.00 0.00 0.00 31 1010.7
20260504033043 21 37 1.6 4.8 0.00 0.00 0.00 31 1010.6
20260504032604 21 344 1.6 4.8 0.00 0.00 0.00 31 1010.4
20260504032043 21 325 1.6 4.8 0.00 0.00 0.00 31 1010.5
20260504031543 21 25 1.6 4.8 0.00 0.00 0.00 30 1010.4
20260504031043 21 266 1.6 4.8 0.00 0.00 0.00 30 1010.3
20260504030543 21 15 3.2 4.8 0.00 0.00 0.00 30 1010.3
20260504030043 21 354 1.6 3.2 0.00 0.00 0.00 30 1010.3
20260504025543 21 333 1.6 4.8 0.00 0.00 0.00 31 1010.3
20260504025043 21 348 1.6 4.8 0.00 0.00 0.00 31 1010.3
20260504024603 22 27 1.6 4.8 0.00 0.00 0.00 31 1010.2
20260504024044 22 344 3.2 4.8 0.00 0.00 0.00 30 1010.2
20260504023543 22 358 3.2 4.8 0.00 0.00 0.00 28 1010.3
20260504023043 22 325 1.6 4.8 0.00 0.00 0.00 27 1010.4
20260504022543 22 355 1.6 6.4 0.00 0.00 0.00 27 1010.3
20260504022043 22 300 3.2 6.4 0.00 0.00 0.00 27 1010.3
20260504021543 22 306 3.2 6.4 0.00 0.00 0.00 27 1010.3
20260504021043 23 299 1.6 4.8 0.00 0.00 0.00 27 1010.3
20260504020604 23 344 1.6 4.8 0.00 0.00 0.00 27 1010.3
20260504020044 23 305 3.2 8.0 0.00 0.00 0.00 25 1010.4
20260504015543 23 312 3.2 8.0 0.00 0.00 0.00 25 1010.5
20260504015043 23 281 1.6 6.4 0.00 0.00 0.00 24 1010.3
20260504014543 23 204 1.6 11.3 0.00 0.00 0.00 25 1010.4
20260504014103 23 303 1.6 11.3 0.00 0.00 0.00 25 1010.3
20260504013543 23 272 4.8 9.7 0.00 0.00 0.00 25 1010.4
20260504013043 23 270 4.8 9.7 0.00 0.00 0.00 25 1010.5
20260504012543 23 251 3.2 16.1 0.00 0.00 0.00 25 1010.6
20260504012043 23 238 6.4 16.1 0.00 0.00 0.00 25 1010.4
20260504011543 23 268 3.2 11.3 0.00 0.00 0.00 24 1010.5
20260504011103 23 269 4.8 12.9 0.00 0.00 0.00 25 1010.5
20260504010543 23 294 3.2 12.9 0.00 0.00 0.00 25 1010.5
20260504005543 23 304 4.8 9.7 0.00 0.00 0.00 25 1010.5
20260504005043 23 227 3.2 11.3 0.00 0.00 0.00 26 1010.8